Regional Weather Roundup
Issued by NWS

Home | Current Version | Previous Version | Text Only | Print | Product List | Glossary On
Versions: 1 2 3 4 5 6 7 8 9 10 11 12 13 14 15 16 17 18 19 20 21 22 23 24 25 26 27 28 29 30 31 32 33 34 35 36 37 38 39 40 41 42 43 44 45 46 47 48 49 50
000
ASUS43 KMPX 011310
RWRMN
WEATHER ROUNDUP FOR MINNESOTA
NATIONAL WEATHER SERVICE TWIN CITIES/CHANHASSEN MN
800 AM CDT SAT NOV 01 2014


NOTE: "FAIR" INDICATES FEW OR NO CLOUDS BELOW 12,000 FEET WITH NO
SIGNIFICANT WEATHER AND/OR OBSTRUCTIONS TO VISIBILITY. N/A MEANS
CURRENT SKY AND/OR WEATHER CONDITIONS ARE NOT AVAILABLE.

MNZ060>063-068>070-011400-
   Twin Cities Metro

CITY           SKY/WX    TMP DP  RH WIND       PRES   REMARKS
TWIN CITIES    MOCLDY    26  17  68 S8        30.45F WCI  18
ST PAUL        CLEAR     25  21  85 SE6       30.47F WCI  18
CRYSTAL        PTCLDY    27  19  72 S6        30.44S WCI  20
BLAINE         MOCLDY    27  21  80 SE6       30.44S WCI  20
LAKEVILLE      PTCLDY    16  12  86 CALM      30.45S
EDEN PRAIRIE   PTCLDY    25  19  78 SE7       30.43F WCI  17
SOUTH ST PAUL  CLEAR     21  19  89 CALM      30.46F
LAKE ELMO      FAIR      19  16  86 CALM      30.46S
$$
MNZ001>005-007-008-013>017-022>024-027-028-011400-
   Northwest Minnesota

CITY           SKY/WX    TMP DP  RH WIND       PRES   REMARKS
BEMIDJI        CLOUDY    29  17  59 S10       30.26F WCI  20
HALLOCK        CLEAR     30  18  59 S22G28    30.13F WCI  17
ROSEAU         MOCLDY    30  18  59 S10       30.20F WCI  21
WARROAD        CLOUDY    34  18  51 S10       30.21F WCI  26
THIEF RVR FALL PTCLDY    30  18  59 SE10      30.20F WCI  21
CROOKSTON      CLEAR     32  18  55 S24       30.19F WCI  19
FOSSTON        MOCLDY    28  16  59 S15G21    30.22F WCI  17
DETROIT LAKES  MOCLDY    32  19  59 S16G23    30.25F WCI  21
MOORHEAD       PTCLDY    30  19  64 S26G36    30.22F WCI  16
PARK RAPIDS    CLOUDY    26  18  71 SE13      30.29F WCI  15
MAHNOMEN       FAIR      29  18  62 S12G17    30.23F WCI  20
$$
MNZ006-009>011-018-025>026-011400-
   North Central Minnesota

CITY           SKY/WX    TMP DP  RH WIND       PRES   REMARKS
BAUDETTE       CLOUDY    29  19  66 SE7       30.24F WCI  22
FLAG ISLAND    MOCLDY    36  25  64 S21       30.21F
INTL FALLS     CLOUDY    26  19  74 S3        30.30F
WASKISH        CLOUDY    28  19  69 SE6       30.26F WCI  22
BIG FORK       CLOUDY    30  18  59 S10G18    30.31F WCI  21
LONGVILLE      CLOUDY    28  19  69 S12G17    30.32F WCI  18
GRAND RAPIDS   CLOUDY    27  18  69 S7        30.35S WCI  19
CRANE LAKE     MOCLDY    21  19  93 CALM      30.37S
ORR            CLOUDY    25  16  68 S5        30.32R WCI  19
COOK           CLOUDY    25  18  74 S6        30.34F WCI  18
WALKER         FAIR      29  16  59 S10G16    30.29F WCI  20
$$
MNZ012-019>021-037-011400-
   Northeast Minnesota

CITY           SKY/WX    TMP DP  RH WIND       PRES   REMARKS
DULUTH         PTCLDY    23  15  71 S6        30.39S WCI  16
ELY            PTCLDY    18  16  93 SE5       30.37S WCI  11
HIBBING        MOCLDY    21  14  74 CALM      30.38R
EVELETH        PTCLDY    19  18  93 S5        30.38S WCI  13
DULUTH HARBOR  PTCLDY    27  19  74 CALM      30.46R
TWO HARBORS    PTCLDY    19  14  79 CALM      30.40R
SILVER BAY     PTCLDY    14  10  85 CALM      30.40S
GRAND MARAIS     N/A     22  18  85 NW6       30.43F WCI  14
G MARAIS ARPRT CLEAR      9   3  78 SW1       30.38S
$$
MNZ029>031-032-039>041-046>048-054>057-064-011400-
   West Central Minnesota

CITY           SKY/WX    TMP DP  RH WIND       PRES   REMARKS
FERGUS FALLS   PTCLDY    27  16  63 S17       30.29F WCI  14
WHEATON        PTCLDY    25  18  74 SE20      30.27F WCI  11
MORRIS         PTCLDY    25  19  80 SE14      30.28F WCI  13
ALEXANDRIA     PTCLDY    28  18  66 S16       30.31F WCI  16
ELBOW LAKE     FAIR      27  19  70 S18       30.27F WCI  14
WADENA         CLOUDY    27  18  69 S9        30.30S WCI  17
GLENWOOD       PTCLDY    27  19  74 S14       30.32S WCI  15
APPLETON       PTCLDY    27  19  74 SE9       30.31F WCI  17
BENSON         PTCLDY    25  18  74 S10       30.32F WCI  15
ORTONVILLE     PTCLDY    23  18  80 SE12      30.27F WCI  12
MADISON        PTCLDY    27  21  80 SE9       30.30F WCI  17
WILLMAR        FAIR      27  18  69 SE9       30.36F WCI  17
$$
MNZ033>034-036-042>043-049>051-058-059-011400-
   Central Minnesota

CITY           SKY/WX    TMP DP  RH WIND       PRES   REMARKS
ST CLOUD       MOCLDY    27  19  72 SE7       30.40S WCI  19
SAUK CENTRE    FAIR      24  18  76 SE12      30.34F WCI  13
PAYNESVILLE    MOCLDY    24  18  77 E9        30.37F WCI  14
AITKIN         CLOUDY    32  23  69 S7        30.36S WCI  26
PINE RIVER     CLOUDY    27  19  74 S8        30.36F WCI  18
BRAINERD       CLOUDY    27  19  72 S10       30.37S WCI  17
STAPLES        CLOUDY    27  18  69 S12       30.32F WCI  16
LONG PRAIRIE   FAIR      27  19  74 SE15      30.34F WCI  15
LITTLE FALLS   CLOUDY    27  19  74 SE8       30.37F WCI  18
LITCHFIELD     PTCLDY    27  19  74 S6        30.39S WCI  20
BUFFALO        PTCLDY    27  19  72 SE5       30.43S WCI  22
MAPLE LAKE     PTCLDY    27  21  78 S6        30.41F WCI  21
$$
MNZ037-044-045-052-053-011400-
   East Central Minnesota

CITY           SKY/WX    TMP DP  RH WIND       PRES   REMARKS
PRINCETON      MOCLDY    25  19  80 SE3       30.42R
MORA           MOCLDY    25  19  80 S3        30.44S
CAMBRIDGE      PTCLDY    27  18  69 S5        30.42S WCI  21
RUSH CITY      PTCLDY    23  19  86 CALM      30.45R
MOOSE LAKE     MOCLDY    19  18  93 W5        30.40S WCI  13
HINCKLEY       FAIR      23  21  93 CALM      30.44R
CLOQUET        PTCLDY    21  16  79 S3        30.40S
MCGREGOR       CLOUDY    27  21  80 S6        30.39S WCI  20
$$
MNZ071>073-080-081-089-090-097-098-011400-
   Southwest Minnesota

CITY           SKY/WX    TMP DP  RH WIND       PRES   REMARKS
MONTEVIDEO     PTCLDY    25  19  80 S10G17    30.33F WCI  15
GRANITE FALLS  PTCLDY    25  19  77 SE12      30.35F WCI  14
CANBY          PTCLDY    29  20  68 S12G17    30.30F WCI  20
MARSHALL       PTCLDY    28  16  59 S16       30.30F WCI  17
REDWOOD FALLS  PTCLDY    24  17  74 SE13      30.36F WCI  12
OLIVIA         MOCLDY    27  19  74 SE9       30.35F WCI  17
PIPESTONE      PTCLDY    27  18  69 S15       30.30S WCI  15
WINDOM         PTCLDY    28  19  69 S8        30.35F WCI  20
WORTHINGTON    PTCLDY    25  18  74 S15G22    30.33F WCI  12
JACKSON        PTCLDY    28  19  69 S13       30.36F WCI  18
TRACY          CLEAR     27  18  69 S15G22    30.32F WCI  16
SLAYTON        CLEAR     25  18  77 S13       30.32F WCI  13
$$
MNZ065>067-074>077-082>085-091>093-011400-
   South Central Minnesota

CITY           SKY/WX    TMP DP  RH WIND       PRES   REMARKS
MANKATO        PTCLDY    25  16  68 S9        30.42F WCI  15
NEW ULM        MOCLDY    25  18  74 SE9       30.40S WCI  15
ST JAMES       MOCLDY    25  19  80 SE7       30.40F WCI  17
FAIRMONT       MOCLDY    25  18  74 S9        30.40F WCI  15
GLENCOE        PTCLDY    24  19  80 SE6       30.41F WCI  17
FARIBAULT      MOCLDY    18  14  86 CALM      30.44S
OWATONNA       PTCLDY    21  16  79 SE6       30.44S WCI  14
WASECA         PTCLDY    21  14  73 SE8       30.45S WCI  12
ALBERT LEA     CLEAR     25  19  80 S6        30.44S WCI  18
$$
MNZ078>079-086>088-094>096-011400-
   Southeast Minnesota

CITY           SKY/WX    TMP DP  RH WIND       PRES   REMARKS
ROCHESTER      CLEAR     18  14  84 S6        30.46R WCI  10
RED WING       PTCLDY    18  16  93 CALM      30.47R
STANTON        FAIR      20  16  83 S3        30.44F
DODGE CENTER   PTCLDY    19  16  86 S6        30.44S WCI  11
WINONA         MOCLDY    23  21  93 CALM      30.50S FOG
AUSTIN         CLEAR     19  16  86 SE5       30.45S WCI  13
PRESTON        PTCLDY    20  16  86 S3        30.46S
$$
ABBREVIATIONS USED IN REMARKS
   TC - TEMPERATURES IN CELSIUS
  WCI - WIND CHILL INDEX
   HX - HEAT INDEX
  VSB - VISIBILITY
$$



USA.gov is the U.S. government's official web portal to all federal, state and local government web resources and services.